User: anonymous   Login
Location: Newark
(48.8481°N, 20.9372°E)
Time: 15:47:40
(UTC+00:00)
Language:

JY1SAT - Orbit

View from above orbital plane
View from above orbital plane
View from above satellite
View from above satellite

Ground track
Ground track

The orbit data is extracted from the following two-line orbital elements,

1 43803U 18099AX  20095.18345431 -.00000032  00000-0  22656-5 0  9992
2 43803  97.7086 168.0436 0016594  80.7117 279.5979 14.95453553 72836
Epoch (UTC): 04 April 2020 04:24:10
Eccentricity: 0.0016594
inclination: 97.7086°
perigee height: 569 km
apogee height: 592 km
right ascension of ascending node: 168.0436°
argument of perigee: 80.7117°
revolutions per day: 14.95453553
mean anomaly at epoch: 279.5979°
orbit number at epoch: 7283

The dashed part of the orbit path shows where the satellite is in the earth's shadow,  

DLR